Tracking 31027 objects as of 19-Jul-2025
HD Live streaming from Space Station
objects crossing your sky now

STARLINK-5880

Track STARLINK-5880 now!
10-day predictions
STARLINK-5880 is classified as:


NORAD ID: 57220
Int'l Code: 2023-094C
Perigee: 565.3 km
Apogee: 567.2 km
Inclination: 43.0 °
Period: 95.8 minutes
Semi major axis: 6937 km
RCS: Unknown
Launch date: July 7, 2023
Source: United States (US)
Launch site: AIR FORCE WESTERN TEST RANGE (AFWTR)
Your satellite tracking list
SL-8 DEB
Track 1 satellite(s)




NASA's NSSDC Master Catalog

Two Line Element Set (TLE):
1 57220U 23094C   25199.52470568 -.00000111  00000-0  68299-5 0  9990
2 57220  43.0025 222.8760 0001356 276.1209  83.9479 15.02530911111898
Source of the keplerian elements: AFSPC